Location: UBC Liquid-Mirror Observatory
(49.2876°N, 122.5728°W)
Time: 23:59:22
(UTC-08:00)

Daily predictions for brighter satellites

Satellite Brightness Start Highest point End
(mag) Time Altitude Azimuth Time Altitude Azimuth Time Altitude Azimuth
In-Cosmos 22 4.2 17:12:21 10° S 17:17:43 80° E 17:23:15 10° NNE
Cosmos 389 Rocket 2.5 17:15:54 10° NNW 17:19:32 88° E 17:23:06 10° SSE
Cosmos 2322 3.8 17:14:37 10° SSW 17:20:18 87° ESE 17:26:04 10° NNE
Cosmos 1844 Rocket 2.7 17:15:04 10° NNW 17:20:48 84° ENE 17:26:27 10° SSE
Cosmos 2221 3.7 17:16:46 10° NNW 17:20:53 47° W 17:24:57 10° SSW
COSMOS 2455 4.3 17:17:27 10° W 17:22:40 29° NW 17:27:54 10° NNE
CZ-4 R/B 1.3 17:18:50 10° SSE 17:22:43 85° ENE 17:26:39 10° NNW
SL-16 R/B 3.4 17:20:29 10° WSW 17:25:46 39° NW 17:31:05 10° NNE
MOS 1 4.3 17:20:16 10° SSE 17:25:55 78° ENE 17:31:38 10° NNW
AQUARIUS 4.1 17:22:47 10° SSE 17:27:16 80° ENE 17:31:48 10° NNW
Cosmos 1634 Rocket 4.2 17:21:38 10° N 17:27:39 49° ENE 17:33:36 10° SSE
Cosmos 1763 Rocket 3.7 17:23:45 10° S 17:28:47 51° ESE 17:33:47 10° NNE
Cosmos 372 Rocket 4.4 17:26:24 10° N 17:31:10 38° ENE 17:35:53 10° SE
Cosmos 332 Rocket 4.4 17:26:59 10° S 17:31:26 38° ESE 17:35:55 10° NE
Lacrosse 4 Rocket 3.3 17:33:11 10° N 17:34:58 12° NNE 17:36:44 10° ENE
Cosmos 2333 4.4 17:29:32 10° S 17:34:59 54° ESE 17:40:26 10° NE
CZ-4C R/B 3.9 17:31:59 10° WNW 17:36:49 24° N 17:42:11 10° NE
Meteor 2-2 Rocket 4.2 17:32:34 10° N 17:38:14 73° ENE 17:43:51 10° SSE
Cosmos 2360 Rocket 2.6 17:34:53 10° SW 17:40:27 63° WNW 17:46:04 10° NNE
Cosmos 1980 Rocket 4.4 17:38:35 10° WNW 17:42:09 17° NW 17:45:42 10° N
Cosmos 540 Rocket 4.4 17:42:02 10° SSE 17:46:23 28° E 17:50:45 10° NE
SJ-6B 4.0 17:43:46 10° ESE 17:47:00 23° ENE 17:50:17 10° NNE
Meteor 2-10 4.4 17:42:41 10° N 17:47:25 38° ENE 17:52:14 10° SE
Cosmos 1766 Rocket 4.0 17:44:46 10° SSW 17:49:12 67° WNW 17:53:38 10° N
ALOS 3.6 17:47:35 10° ESE 17:50:46 18° ENE 17:53:57 10° NNE
Meteor 1-21 Rocket 4.4 17:48:16 10° SSW 17:54:11 83° WNW 18:00:05 10° N
ATLAS 3B R/B 4.1 17:49:08 10° WNW 17:55:18 28° NNW 18:01:12 10° NE
COSMO-SKYMED 1 3.1 17:51:35 10° NNE 17:55:41 39° E 17:59:45 10° SSE
ATLAS 5 CENTAUR R/B 3.8 17:52:13 10° NW 17:56:03 19° N 17:59:37 12° NE
Cosmos 2333 Rocket 2.6 17:52:30 10° S 17:57:48 44° ESE 18:02:58 11° NE
Resurs 01 Rocket 3.0 17:55:06 11° ESE 17:58:04 19° ENE 18:01:13 10° NNE
USA 215 3.3 17:53:15 10° ESE 17:59:50 90° NE 18:06:26 10° WNW
METEOR-M 4.5 17:55:28 10° SE 18:00:27 41° ENE 18:05:28 10° N
YAOGAN 1 3.4 17:56:18 10° S 18:00:33 56° W 18:04:51 10° NNW
Cosmos 371 Rocket 3.5 17:56:33 10° S 18:01:12 52° ESE 18:05:53 10° NNE
Cosmos 2058 3.7 17:58:46 10° SSE 18:02:22 30° E 18:05:48 11° NNE
USA 116 3.7 18:00:55 10° N 18:04:12 60° WNW 18:07:16 10° SSW
FREGAT/IRIS 3.8 18:04:43 22° E 18:05:17 23° ENE 18:07:49 10° NNE
Cosmos 2228 Rocket 3.9 18:01:29 10° NNW 18:05:48 55° W 18:10:08 10° S
Thor Agena Rocket 3.6 18:00:54 10° NNE 18:06:12 90° W 18:11:25 10° SSW
Cosmos 1125 Rocket 3.5 18:01:11 10° NNW 18:06:26 87° WSW 18:11:38 10° SSE
Cosmos 2219 Rocket 2.2 18:01:12 10° SSW 18:06:46 64° ESE 18:12:17 10° NNE
Cosmos 1455 3.7 18:05:38 10° NNE 18:07:21 18° NE 18:07:21 18° NE
Cosmos 2322 Rocket 4.2 18:05:17 10° W 18:09:39 22° NW 18:14:02 10° N
Cosmos 2278 Rocket 2.2 18:04:24 10° NNW 18:10:08 89° WSW 18:15:50 10° SSE
SMAP 4.5 18:06:17 10° S 18:10:41 41° W 18:15:07 10° NNW
Cosmos 1626 4.3 18:08:25 10° SE 18:08:48 12° ESE 18:08:48 12° ESE
Cosmos 1674 3.7 18:10:17 10° SSW 18:14:00 48° WNW 18:17:47 10° N
Meteor 1-27 4.2 18:08:22 10° N 18:14:10 67° ENE 18:19:58 10° SSE
Cosmos 1340 Rocket 3.5 18:11:52 10° SSE 18:15:20 30° E 18:16:41 24° ENE
Cosmos 1943 Rocket 4.1 18:14:07 10° N 18:15:32 11° NNE 18:16:15 11° NNE
Orbus 7S? 4.0 18:12:39 10° NW 18:15:59 51° NNE 18:20:36 17° E
Transit 2A Rocket 4.4 18:12:52 10° NW 18:17:17 87° NE 18:21:36 10° SE
Cosmos 2279 Rocket 3.9 18:12:32 10° N 18:18:45 69° ENE 18:24:57 10° SSE
Spot 2 Rocket 4.1 18:16:22 10° SE 18:20:49 32° ENE 18:25:16 10° N
Cosmos 44 Rocket 3.4 18:16:03 10° SSW 18:21:07 66° ESE 18:24:26 21° NE
SL-14 R/B 3.2 18:17:25 10° S 18:21:18 62° E 18:25:15 10° NNE
Cosmos 1726 2.4 18:19:29 10° NNW 18:23:15 70° W 18:26:59 10° S
NOAA 12 4.0 18:18:24 10° SSE 18:23:35 67° ENE 18:28:49 10° N
Cosmos 841 Rocket 3.8 18:18:19 10° SSW 18:23:35 71° WNW 18:28:53 10° NNE
Cosmos 1484 Rocket 3.7 18:21:53 10° S 18:25:43 53° W 18:29:40 10° NNW
SKYMED 3 4.5 18:21:28 10° NNE 18:25:50 78° ESE 18:30:10 10° S
Cosmos 1300 3.1 18:23:57 10° NNW 18:27:46 65° W 18:31:34 10° S
Lacrosse 5 2.8 18:24:45 10° W 18:29:30 38° NNW 18:32:10 22° NE
Cosmos 2151 2.8 18:29:51 10° S 18:34:03 86° E 18:38:17 10° N
COSMOS 2428 3.5 18:33:21 10° SW 18:38:54 50° NW 18:44:27 10° NNE
Cosmos 2237 Rocket 2.1 18:33:30 10° SSW 18:39:05 70° ESE 18:42:57 21° NE
Cosmos 2180 Rocket 4.4 18:33:05 10° N 18:39:16 80° E 18:45:28 10° SSE
Cosmos 2369 Rocket 3.5 18:36:02 10° N 18:40:14 21° NE 18:40:14 21° NE
Cosmos 1900 4.2 18:35:24 10° NW 18:40:22 75° NE 18:44:01 19° SE
Aureole 2 Rocket 2.9 18:37:10 10° S 18:40:48 49° ESE 18:41:14 46° E
CENTAUR R/B 3.0 18:34:38 10° WSW 18:40:53 63° NW 18:46:24 18° NE
DNEPR-1 R/B 4.3 18:36:03 10° SW 18:42:45 83° SE 18:46:00 27° NE
Nadezhda 4 Rocket 4.2 18:37:55 10° SSE 18:43:47 44° E 18:49:43 10° NNE
SKYMED 2 3.8 18:39:32 10° N 18:43:53 71° WNW 18:48:11 10° SSW
Cosmos 1151 Rocket 4.2 18:40:26 10° NNW 18:44:30 43° W 18:48:33 10° SSW
Cosmos 304 Rocket 4.1 18:40:03 10° S 18:44:35 42° ESE 18:45:19 39° E
SL-16 R/B 2.7 18:39:35 10° S 18:44:41 36° ESE 18:45:34 34° E
Lacrosse 5 rocket 2.3 18:45:32 10° WNW 18:49:07 42° SW 18:51:54 16° SSE
Timation 1 Rocket 4.4 18:43:59 10° NNW 18:50:02 82° WSW 18:56:03 10° SSE
Cosmos 2297 3.7 18:44:45 10° NNW 18:50:30 89° WSW 18:56:14 10° SSE
Cosmos 1805 Rocket 3.5 18:46:34 10° S 18:50:57 61° E 18:52:49 33° NNE
Meteor 1-28 Rocket 3.3 18:49:51 20° N 18:52:22 74° WNW 18:56:04 10° SSW
Cosmos 1092 Rocket 4.2 18:56:15 10° SSE 19:02:11 45° E 19:05:05 28° NE
BREEZE-M DEB (TANK) 4.5 19:05:19 10° SSW 19:05:55 16° SSW 19:05:55 16° SSW
Sich 1 3.6 19:08:07 10° S 19:11:18 45° SSE 19:11:18 45° SSE
Lacrosse 4 Rocket 2.4 19:10:35 10° NNW 19:13:08 34° N 19:13:08 34° N
Cosmos 1633 Rocket 4.4 19:12:51 10° S 19:14:58 28° S 19:14:58 28° S
Cosmos 2084 3.9 19:16:57 10° WSW 19:20:32 47° NW 19:20:32 47° NW
SJ-6B 4.2 19:17:35 10° S 19:21:27 41° W 19:25:24 10° NNW
CZ-3A R/B 3.4 19:18:28 10° WNW 19:23:10 50° SW 19:26:01 24° SSE
Cosmos 2360 Rocket 4.5 19:22:03 10° WNW 19:25:38 17° NW 19:29:14 10° N
Cosmos 1980 4.3 19:21:22 10° SW 19:26:55 54° NW 19:29:58 26° N
CZ-4C R/B 3.7 19:21:53 10° NW 19:27:28 29° NNE 19:27:53 29° NNE
ALOS 2.5 19:23:05 10° S 19:27:44 68° WSW 19:32:25 10° NNW
Cosmos 540 Rocket 4.3 19:22:47 10° SW 19:27:46 47° WNW 19:30:43 23° N
FengYun 1-2 T 4.4 19:22:53 10° S 19:28:26 70° WSW 19:33:59 10° NNW
Cosmos 44 3.7 19:24:35 10° SW 19:29:45 62° NW 19:30:32 54° N
FENGYUN 3A 3.8 19:25:15 10° S 19:30:36 71° WSW 19:36:00 10° NNW
Cosmos 1703 4.2 19:29:27 10° SSW 19:32:53 46° W 19:32:53 46° W
Resurs 01 Rocket 2.1 19:32:39 38° SSW 19:34:09 60° W 19:38:34 10° NNW
Cosmos 2333 Rocket 3.4 19:36:54 10° WSW 19:42:10 38° NW 19:45:00 23° N
ATLAS 5 CENTAUR R/B 3.5 19:37:25 10° NW 19:41:11 29° N 19:41:11 29° N
Cosmos 1455 4.3 19:40:51 10° NNW 19:42:30 22° NW 19:42:30 22° NW
Cosmos 1626 4.5 19:42:17 10° SSW 19:43:34 19° SW 19:43:34 19° SW
ATLAS 3B R/B 3.9 19:42:21 10° NW 19:48:18 27° NNE 19:48:28 27° NNE
Cosmos 2219 Rocket 3.9 19:46:19 10° WSW 19:51:10 29° NW 19:54:02 19° N
Cosmos 1943 Rocket 4.1 19:56:04 10° NNW 19:57:48 19° N 19:57:48 19° N
Lacrosse 5 3.6 20:08:43 10° WNW 20:11:23 26° NW 20:11:23 26° NW
Cosmos 2237 Rocket 3.9 20:18:57 10° WSW 20:23:41 27° NW 20:24:50 25° NNW
Cosmos 2369 Rocket 3.8 20:19:29 10° NNW 20:22:03 28° NNW 20:22:03 28° NNW
SL-16 R/B 3.4 20:23:19 10° SW 20:27:31 39° W 20:27:31 39° W
CENTAUR R/B 4.1 20:27:12 10° WNW 20:33:02 30° NNW 20:33:36 29° N
CZ-4C R/B 4.4 21:10:28 10° NW 21:13:04 26° NNW 21:13:04 26° NNW
